Location: Winnipeg
(49.8830°N, 97.1670°W)
Time: 19:31:04
(UTC-06:00)

Envisat - Pass Details

Date: 04 December 2022
Orbit: 763 x 765 km, 98.2° (Epoch: 28 January)

Event Time Altitude Azimuth Distance (km) Brightness Sun altitude
Rises 06:01:33 0° 6° (N) 3,246 6.2 -19.6°
Reaches altitude 10° 06:04:08 10° 355° (N) 2,315 5.3 -19.2°
Enters shadow 06:06:49 23° 328° (NNW) 1,576 4.2 -18.7°
